Regional Weather Roundup
Issued by NWS Charleston, SC

Current Version | Previous Version | Text Only | Print | Product List | Glossary Off
Versions: 1 2 3 4 5 6 7 8 9 10 11 12 13 14 15 16 17 18 19 20 21 22 23 24 25 26 27 28 29 30 31 32 33 34 35 36 37 38 39 40 41 42 43 44 45 46 47 48 49 50
000 ASUS42 KCHS 251612 RWRCHS REGIONAL WEATHER ROUNDUP NATIONAL WEATHER SERVICE CHARLESTON SC 1200 PM EDT SUN JUN 25 2017 NOTE: "FAIR" INDICATES FEW OR NO CLOUDS BELOW 12,000 FEET WITH NO SIGNIFICANT WEATHER AND/OR OBSTRUCTIONS TO VISIBILITY. NOT ALL STATIONS ARE QUALITY CONTROLLED. USE DATA WITH CAUTION... ESPECIALLY DEWPOINT OBSERVATIONS. SCZ027-030-031-034>040-042>050-251700- ...SOUTHEAST SOUTH CAROLINA... CITY SKY/WX TMP DP RH WIND PRES REMARKS N CHARLESTON CLOUDY 87 72 60 W5 30.08R HX 93 WATERFRONT PRK N/A 84 73 69 VRB3 30.07S HX 90 JOHNS ISLAND FAIR 86 75 70 VRB7 30.08S HX 95 PINOPOLIS N/A 82 72 69 CALM 30.02R MONCKS CORNER FAIR 84 70 61 CALM 30.08S SUMMERVILLE FAIR 86 70 58 W3 30.09S HX 90 BEAUFORT MCAS PTSUNNY 87 78 74 SE3 30.08F HX 100 BEAUFORT ARPT FAIR 86 77 74 S5 30.08S HX 97 HILTON HEAD IS CLOUDY 86 77 74 SE8 30.09S HX 97 WALTERBORO CLOUDY 86 72 62 CALM 30.09S HX 92 ALLENDALE CLOUDY 84 75 74 CALM 30.08S HX 92 ...SOUTHERN MIDLANDS AND PEE DEE... CITY SKY/WX TMP DP RH WIND PRES REMARKS GEORGETOWN FAIR 84 73 70 CALM 30.08S HX 91 KINGSTREE FAIR 82 72 69 CALM 30.07S ORANGEBURG CLOUDY 85 72 65 CALM 30.08S HX 91 BARNWELL PTSUNNY 86 75 70 W6 30.09S HX 95 AIKEN NOT AVBL MANNING FAIR 82 77 83 SW5 30.08R HX 91 COLUMBIA PTSUNNY 85 71 63 CALM 30.08R HX 90 SUMTER PTSUNNY 83 73 69 CALM 30.06R FLORENCE CLOUDY 81 73 76 CALM 30.08S MYRTLE BEACH PTSUNNY 84 72 65 VRB6 30.08S N MYRTLE BEACH MOSUNNY 82 74 76 VRB3 30.06S $$ GAZ063-065-086>088-099>101-113>116-118-119-134>141-150-251700- ...SOUTHEAST GEORGIA... CITY SKY/WX TMP DP RH WIND PRES REMARKS SAVANNAH ARPT PTSUNNY 89 72 56 VRB3 30.08 HX 96 HUNTER AAF MOSUNNY 88 76 66 CALM 30.06S HX 99 FORT STEWART MOSUNNY 90 73 57 SW10 30.06S HX 98 STATESBORO PTSUNNY 86 77 74 E3 30.08F HX 97 SYLVANIA PTSUNNY 85 77 76 CALM 30.10S HX 96 CLAXTON FAIR 87 74 66 S6 30.07F HX 94 ...CSRA...CENTRAL AND FAR SOUTHEAST GEORGIA... CITY SKY/WX TMP DP RH WIND PRES REMARKS THOMSON PTSUNNY 81 73 77 NE5 30.16S AUGUSTA-BUSH SUNNY 87 73 62 VRB3 30.09R HX 94 AUGUSTA-DANIEL PTSUNNY 86 68 54 W5 30.11R SWAINSBORO LGT RAIN 81 79 94 W6 30.11S VIDALIA CLOUDY 86 77 74 NW9 30.09S HX 97 EASTMAN CLOUDY 84 69 60 NW8 30.14R HAZLEHURST N/A 86 77 73 SW9 30.10S HX 96 ALMA PTSUNNY 87 75 67 SW10 30.10S HX 96 WAYCROSS CLOUDY 89 80 77 W8 30.11S HX 106 JESUP FAIR 88 72 58 SW7 30.10S HX 94 BAXLEY CLOUDY 86 81 84 W6 30.09F HX 102 BRUNSWICK MOSUNNY 90 75 62 SW9G17 30.11R HX 100 SAINT SIMONS SUNNY 90 73 57 SW15 30.09S HX 98 $$ SCZ027-028-034-036>038-045-046-048>050-GAZ119-141-251700- ...LAKE AND SUPPLEMENTAL COASTAL OBSERVATIONS... STATION/POSITION TIME TEMP WIND PRES WAVE SWELL AIR SEA DIR/SP/G HT/PER HT/PER/DIR (UTC) (F) (DEG/KT/KT) (MB) (FT/S) (FT/S/D) WINYAH BAY 1445 81 290/ 4 1018.0 LAKE MURRAY 1520 83 CALM / 3 1017.9 ACE BASIN NERRS 1445 87 CALM 1019.0 FORT PULASKI 1548 85 84 200/ 6/ 9 1019.2R SAPELO ISLAND 1500 87 230/ 6 1019.0 $$ ANZ835-935-AMZ111-154-330-350-352-354-370-450-454-472-251700- ...C-MAN AND BUOY OBSERVATIONS... STATION/POSITION TIME TEMP WIND PRES WAVE SWELL AIR SEA DIR/SP/G HT/PER HT/PER/DIR (UTC) (F) (DEG/KT/KT) (MB) (FT/S) (FT/S/D) BUOY 41004 1550 80 81 240/ 10/ 12 1018.8R 4/ 6 3/170/ 6 BUOY 41008 1550 81 82 220/ 10/ 10 1018.8R 3/ 9 2/120/ 9 FOLLY BEACH CMAN 1500 83 160/ 4/ 5 1019.3R CAPERS NEARSHORE 1508 87 83 230/ 4/ 6 1018.6R FRIPP NEARSHORE 1508 83 84 200/ 2/ 6 1018.6R STATION/POSITION TIME TEMP WIND PRES WAVE SWELL AIR SEA DIR/SP/G HT/PER HT/PER/DIR (UTC) (F) (DEG/KT/KT) (MB) (FT/S) (FT/S/D) 5E ST. MARYS GA 1530 80 N/A 2/ 9 FRYING PAN BUOY 1550 80 80 240/ 16/ 17 1018.3R 4/ 6 2/130/ 9 BUOY 41025 1550 78 80 260/ 8/ 10 1017.1F 4/ 6 3/230/ 6 CAPE LOOKOUT NC 1500 80 250/ 11/ 12 1017.2R BUOY 41002 1450 81 80 210/ 14/ 16 1021.0 4/ 6 2/230/ 7 BUOY 41010 1550 83 83 180/ 12/ 14 1021.0R 4/ 9 3/120/ 9 ST AUGUSTINE FL 1600 78 77 150/ 10/ 11 1020.4F $$

USA.gov is the U.S. government's official web portal to all federal, state and local government web resources and services.